STARLINK-36695, 67702

Orbit data source: Space-Track

STARLINK-36695, 67702 is a payload satellite owned by SpaceX/Seattle (US) in SSO that was launched on Sat, 07 Feb 2026 UTC via an FALCON 9 launch vehicle from the Air Force Western Test Range (AFWTR). Payload-class satellites include a variety of spacecraft equipped with specific instruments for various scientific and technological missions. These include communications satellites like Starlink; space stations such as the ISS; scientific satellites like the Hubble; Earth observation satellites from companies like Planet Labs, Umbra, and HawkEye 360; GPS; miniature CubeSats for education and research; and military/defense satellites.

Not visible in the next 10 days
Identifier
67702, 2026-025K
Orbit
SSO
Country
Flag of USUS
Related business
Manufacturer
SpaceX/Seattle
Mission
Operational spacecraft
Bus & Motor
STARLINK V2MO, Unknown motor
Mass
575 kg wet, ~530 kg dry
Launch date (UTC)
2026-02-07 (1 month ago)
Launch vehicle
FALCON 9
Launch site
Air Force Western Test Range (AFWTR)
Object type
Payload
Rocket body
Debris
Shape & HBR
Unknown
Radar Cross Section
RCS unknown

Expand to show TLE details & history
Last TLE update: 13 hours ago

TLE from 13 hours ago
0 STARLINK-36695
1 67702U 26025K   26071.82948904  .00279535  00000-0  18169-2 0  9995
2 67702  97.2826 183.5513 0001564  81.3061 278.8381 15.75156918  6437
Epoch: 2026-03-12T19:54Z
TLE epoch observation values (Epoch: 2026-03-12T19:54:27.853Z)
Latitude
-0.00003°
Longitude
74.46149°
Altitude
347.192 km
Speed
7.701 km/s
True Right ascension
12h 14m 12s
True Declination
0° 00' 00"
Sunlit
Object was in full shadow at epoch
Visualization orbit readout
Latitude
Unknown
Longitude
Unknown
Altitude
Unknown
Speed
Unknown
Apparent Right ascension
Unknown
Apparent Declination
Unknown
Sunlit
N/A
Visualization observer readout
Local Sidereal Time
12:52:39
Azimuth
Unknown
Elevation
Unknown
Doppler factor
Unknown
Orbital elements
Apogee altitude
342.123 km
Perigee altitude
340.021 km
Semi-major axis
6,719.209 km
Eccentricity
0.00016
Inclination
97.2826°
RAAN
183.5513°
Arg. of periapsis
81.3061°
True anomaly
278.82039°
Mean anomaly
278.8381°
Eccentric anomaly
278.82925°
Mean motion
3.94063 °/min
Orbital period
91.36 mins
BSTAR
0.0018169
Loading maneuver chart data...
Computing Atmospheric mass density...
Loading historical data...
Loading historical data...
Loading historical data...
Loading historical data...
Loading historical data...
Loading historical data...
Loading historical data...

Documentation

Showing up to 5 results
|